Powrót do katalogu

SL-6 DEB *

AktywnyHEO
NORAD 48262·DEBRIS·🇷🇺 Russia

Wystrzelony Jul 18, 1980 z Plesetsk Cosmodrome

Loading…

Następne Przeloty (najbliższe 24 godziny)

TLE

Starzejące sięSource: Space-Track

Epoka: Sep 5, 2026, 06:52 UTC

1 48262U 80063F   26248.28616420 -.00000564  00000-0  73090-2 0  9997
2 48262  63.8009 351.2237 7210416 280.7335  69.1505  2.05099866 95816

Śledź SL-6 DEB * w czasie rzeczywistym z AllMySat

Download on the App Store